RH
67 70 73 76 77 80 78 76 73 76 78 85 87 84 82 79 83 90 82 78 77 78 73 73 75 76 76 74 73 71 65 66 73 66 64 64 73 71 70 68 71 71 69
63 72 75 76 78 79 81 78 76 77 82 84 86 89 81 82 85 82 79 72 77 76 74 74 72 63 80 80 76 80 73 75 76 83 70 69 73 73 72 76 74 70 74
57 68 73 79 81 83 82 82 80 79 78 82 89 88 85 84 82 79 79 76 70 68 70 70 73 75 82 81 80 77 72 74 72 72 75 70 69 66 72 79 90 87 73
55 66 73 75 78 78 80 81 81 80 82 86 88 89 90 87 80 77 76 73 73 67 70 68 71 74 76 79 75 82 81 79 72 73 85 74 71 70 81 88 90 75 76
60 66 72 73 74 75 78 77 79 81 88 91 89 86 86 79 66 77 74 73 75 72 67 68 68 69 74 76 75 85 85 75 73 87 87 78 75 80 94 91 98 82 81
60 66 71 75 75 77 78 81 83 87 88 85 84 84 82 66 75 80 74 73 68 70 77 73 72 69 69 79 81 73 75 81 89 94 82 88 80 91 97 99 99 98 99
67 67 72 76 78 80 82 83 87 88 87 86 84 83 83 77 86 80 70 67 68 74 76 78 66 46 75 73 74 72 73 76 82 88 94 89 93 98 98 98 97 98 99
69 69 73 77 77 82 84 86 89 89 89 87 85 83 82 75 86 84 78 71 72 73 75 71 74 72 78 75 75 75 72 74 76 66 86 87 93 96 97 99 99 98 96
68 71 74 80 84 85 88 90 91 89 90 90 85 81 86 83 90 89 84 73 74 76 73 71 75 80 71 70 76 79 78 73 65 72 81 85 87 85 90 98 98 99 98
68 79 82 83 86 89 88 93 92 89 91 82 82 82 79 90 96 92 83 74 75 73 72 75 69 67 66 71 78 80 80 70 71 70 75 84 88 89 83 96 99 99 99
80 80 84 85 89 90 92 91 89 83 84 83 80 82 82 88 94 87 75 77 69 64 63 64 60 69 73 73 76 79 77 75 74 65 73 84 92 93 96 96 96 99 99
77 80 84 87 80 84 90 87 86 87 86 85 84 82 85 90 89 80 70 65 68 72 71 65 62 57 62 73 73 67 77 74 55 56 51 52 73 53 84 97 95 96 97
80 82 86 85 86 87 89 87 80 84 77 81 90 84 95 86 75 80 69 65 67 71 69 64 61 64 66 71 66 73 65 54 54 55 52 53 54 46 81 92 94 91 93
88 90 90 89 87 85 78 78 80 75 88 93 86 96 94 85 82 64 63 64 76 74 63 70 61 59 58 57 61 58 55 57 56 54 53 51 62 48 46 44 93 84 89
83 84 82 80 82 89 85 89 81 90 95 94 93 94 95 98 85 72 68 64 62 66 67 66 63 60 59 59 61 62 63 63 58 58 55 52 48 56 43 45 44 77 89
77 72 68 70 78 81 81 88 99 98 97 99 100 91 91 90 77 66 65 58 55 62 64 62 60 57 55 55 56 56 56 57 62 58 57 55 53 50 59 46 47 51 59
69 68 68 71 77 82 84 87 84 80 84 85 81 75 64 68 69 66 61 59 60 66 60 54 56 55 52 52 49 51 52 61 68 58 57 54 53 52 49 59 50 51 50
68 82 63 64 73 77 79 83 70 72 64 57 75 67 78 74 74 72 65 70 53 57 45 48 53 54 54 55 53 53 55 60 59 62 61 59 55 52 49 48 50 55 56
52 51 54 59 63 69 69 75 62 62 60 60 53 59 71 81 77 74 81 62 46 39 40 43 52 55 54 54 62 64 67 61 63 65 62 62 62 56 54 48 43 54 60
60 73 65 54 57 62 64 71 78 74 60 56 50 44 44 52 50 54 60 53 43 37 38 39 50 57 58 62 64 64 55 58 59 55 57 62 53 55 50 51 47 45 48
42 48 74 45 40 43 48 52 60 81 54 51 51 48 57 44 46 48 43 44 40 40 42 44 31 45 53 56 60 52 45 45 51 54 53 56 54 51 55 50 52 44 46
42 38 43 40 57 55 48 71 65 54 48 49 46 51 68 45 42 44 42 41 41 46 41 54 43 43 44 50 52 46 42 45 50 52 55 51 51 48 50 48 46 51 45
30 39 36 43 59 58 53 77 68 77 67 51 45 44 43 44 42 42 42 38 41 39 41 43 44 40 43 45 44 50 45 52 58 54 60 52 50 50 51 52 48 51 52
30 30 30 43 42 50 49 58 60 72 68 48 44 46 45 45 39 48 42 38 39 37 39 40 42 41 44 41 43 42 51 63 63 56 63 59 51 52 50 50 48 52 50
41 35 38 53 59 44 45 58 66 67 56 52 43 45 52 54 47 49 41 40 36 37 41 41 44 45 44 43 46 48 80 91 73 88 59 59 52 54 48 47 52 51 52
44 40 40 40 44 49 65 76 70 81 59 46 53 55 53 44 49 48 40 36 33 32 35 38 39 41 38 38 51 77 87 88 75 87 69 53 49 47 48 50 48 45 48
Wind_Speed
19 18 17 16 16 14 14 11 12 9 9 8 10 10 8 8 6 6 7 4 5 4 3 1 3 2 3 4 4 4 6 7 11 10 11 12 14 15 12 16 16 15 13
17 16 16 15 15 15 14 14 10 11 8 8 9 7 9 9 7 9 7 6 6 5 4 4 2 3 4 5 3 5 7 6 8 14 13 12 14 16 16 17 16 15 14
16 16 15 15 14 14 14 12 11 10 10 9 8 7 7 5 8 6 6 5 2 2 3 2 3 4 5 3 4 5 7 6 9 9 12 11 12 14 19 16 16 15 13
16 16 16 15 14 13 12 12 12 10 10 9 10 7 5 6 7 5 4 4 2 3 4 1 4 5 3 5 4 6 6 8 9 9 10 11 13 17 14 15 15 12 13
14 15 15 14 12 12 12 11 10 10 9 8 8 10 10 12 8 7 5 5 5 5 2 4 5 5 8 4 3 4 6 8 8 8 8 10 14 18 16 14 15 15 15
13 14 13 12 11 10 10 10 8 9 10 11 12 10 8 6 6 11 8 4 3 1 3 3 4 6 5 9 2 11 10 9 9 5 7 11 16 18 13 14 15 13 6
11 11 11 10 10 10 10 10 11 10 9 10 10 8 6 6 6 10 7 2 2 3 2 3 3 5 6 4 7 10 11 14 7 5 7 8 14 18 16 18 18 16 6
10 11 10 10 9 9 8 8 7 8 7 5 3 3 5 5 8 9 7 2 2 2 4 3 3 2 6 5 5 7 8 9 7 7 3 4 10 17 17 15 14 14 10
11 10 9 9 9 7 7 6 7 6 5 5 8 3 7 5 5 9 5 3 4 5 5 4 4 9 5 8 5 7 8 8 9 11 6 3 10 23 24 14 13 12 11
10 10 9 8 7 7 6 7 6 6 6 3 2 8 7 6 2 3 2 3 5 3 3 7 13 7 5 4 4 5 7 9 10 12 9 5 5 8 18 16 12 12 10
13 11 9 9 8 9 9 7 7 12 8 11 10 9 10 14 9 7 7 2 4 4 4 5 3 3 5 4 4 5 5 8 10 10 2 4 6 6 4 9 14 12 11
14 12 10 8 8 6 12 12 10 7 7 6 4 5 6 7 12 8 9 6 3 3 4 4 4 5 9 6 7 8 9 8 7 8 8 7 8 10 8 4 11 13 10
12 12 11 11 9 9 6 7 8 5 5 5 4 4 6 5 6 8 9 5 4 1 2 2 6 8 10 8 4 8 7 7 8 7 6 6 5 8 7 2 4 8 12
11 11 9 10 11 9 7 7 6 8 6 5 5 4 5 5 5 5 4 4 5 3 6 3 6 4 7 5 4 6 6 6 7 7 7 8 5 6 7 9 3 7 11
10 10 9 9 10 8 8 5 3 6 3 3 5 5 6 5 3 6 5 5 3 3 4 4 1 3 3 4 4 4 4 5 6 6 6 8 9 5 8 8 10 2 8
10 9 7 8 7 7 7 7 14 6 7 6 5 8 3 11 11 14 13 11 6 4 2 2 4 4 4 4 5 5 5 7 6 6 7 7 7 8 4 6 7 8 7
5 9 8 7 6 5 5 6 8 6 14 16 11 13 13 13 12 13 11 4 3 2 1 4 4 4 5 5 5 5 6 6 7 7 7 8 8 10 10 4 6 6 8
7 8 6 5 4 5 6 6 7 7 7 7 11 8 10 12 11 11 8 3 2 3 5 4 4 4 4 4 5 5 5 4 5 4 5 5 6 6 8 9 7 6 5
6 5 5 6 7 7 6 6 6 8 8 9 8 5 6 9 9 5 2 3 4 5 4 5 4 4 4 4 4 3 2 3 4 4 5 4 4 3 5 7 9 11 8
5 4 3 5 7 6 4 5 6 6 9 8 7 8 7 5 4 4 3 4 5 5 4 4 4 3 4 3 4 4 4 4 5 5 6 4 7 5 5 5 6 8 8
5 3 5 4 6 6 4 4 7 7 8 8 8 9 11 7 6 5 6 4 4 5 5 4 5 4 4 4 4 5 5 5 6 6 6 5 6 6 5 5 5 7 8
7 7 5 5 6 7 7 5 6 8 9 8 10 10 13 6 5 4 6 6 5 5 4 2 4 4 4 4 6 7 7 7 6 6 6 6 5 7 5 5 6 5 6
4 9 6 6 4 8 8 6 6 5 5 8 11 9 8 5 5 4 7 7 6 5 3 3 4 4 4 6 7 6 7 6 7 7 8 8 5 6 4 4 6 5 5
4 3 3 4 5 6 9 8 8 8 7 9 10 8 7 7 7 6 6 7 6 6 5 6 7 9 7 7 7 7 6 6 6 7 10 9 4 7 4 5 5 6 5
1 5 7 7 4 5 7 6 5 4 9 8 11 8 9 6 5 3 7 7 6 5 5 6 6 9 9 10 9 9 6 4 5 8 7 8 6 9 5 4 4 5 6
4 6 4 4 3 5 5 5 6 4 5 8 9 9 8 8 5 5 7 7 6 6 7 6 7 11 10 8 8 7 6 7 8 9 8 4 5 4 7 5 7 5 6
Wind_Direction
198 201 205 206 210 211 217 224 218 209 210 164 165 157 171 196 176 231 201 258 195 176 230 250 257 294 279 327 296 299 322 322 307 314 309 311 310 302 321 310 307 300 288
195 200 204 206 207 212 215 215 229 212 201 168 164 172 184 190 181 213 219 240 181 189 210 241 289 304 310 284 325 333 299 317 316 316 308 315 312 318 310 311 304 296 288
196 193 201 202 208 210 210 214 212 217 210 178 168 174 173 181 220 190 224 232 199 225 223 249 304 299 285 357 315 304 312 322 321 309 310 321 316 323 312 302 294 290 280
189 191 198 201 205 207 203 204 208 206 209 176 162 170 173 213 226 209 215 173 202 252 231 356 286 293 347 314 318 303 343 325 314 308 320 320 331 327 312 308 302 294 292
181 187 194 198 201 201 195 203 194 199 154 156 153 169 190 207 200 202 197 161 182 227 4 269 281 8 334 309 357 352 329 315 307 323 315 332 332 329 321 316 305 306 297
176 180 181 188 192 201 197 185 177 164 164 163 172 190 192 207 212 171 151 188 143 226 231 276 342 315 14 91 40 353 325 299 307 336 334 338 336 328 318 319 310 308 313
166 169 172 178 184 187 170 169 171 168 160 171 183 179 169 106 116 112 114 127 149 232 326 297 321 337 50 13 357 330 312 310 341 352 338 348 345 332 327 323 321 311 288
161 166 166 169 180 161 163 168 161 151 154 150 107 124 147 139 126 112 128 143 232 268 271 276 287 309 58 31 335 321 321 317 348 335 336 324 2 339 339 323 311 306 305
163 161 153 145 146 151 158 149 133 132 131 145 142 131 92 118 132 134 162 184 237 245 242 22 357 76 43 26 346 318 315 327 325 314 276 345 10 354 341 334 343 337 342
164 125 121 133 140 126 140 137 134 122 114 95 145 119 122 119 64 144 82 319 308 341 21 81 64 58 359 335 319 317 320 321 316 315 319 283 318 333 349 348 336 343 343
111 117 125 137 130 147 150 148 140 138 149 151 178 159 154 153 151 128 79 11 359 1 352 97 84 192 270 319 296 271 293 314 309 317 269 320 310 314 332 350 355 345 348
124 135 150 138 150 159 134 144 152 169 142 132 168 152 115 116 126 127 102 83 19 351 315 68 36 343 304 318 291 299 327 323 342 334 356 356 344 343 328 342 354 356 355
133 148 128 124 116 122 123 125 134 152 145 161 180 184 137 120 97 127 133 164 229 279 357 7 258 275 286 288 302 292 19 0 346 341 1 341 343 334 317 322 351 357 5
113 116 127 128 127 143 156 161 160 172 156 167 177 178 161 137 132 153 185 185 233 261 271 252 238 279 284 266 334 46 44 354 351 342 352 340 318 347 346 356 60 18 26
139 135 141 144 142 115 74 41 72 26 353 180 173 156 148 187 168 141 140 105 67 75 337 264 81 32 21 25 9 54 50 356 358 341 350 347 347 3 7 360 2 68 46
148 150 156 148 146 136 125 94 45 53 81 22 136 126 65 120 152 110 103 102 93 40 263 35 47 26 24 23 16 20 45 5 351 352 345 346 346 360 5 9 9 4 31
127 134 150 150 154 138 111 136 111 68 60 49 76 114 120 139 117 105 107 107 235 273 251 59 49 31 24 21 24 21 21 17 0 1 3 359 359 350 358 23 5 10 11
77 73 128 145 126 146 165 169 143 148 115 96 44 79 109 113 102 99 95 18 264 203 89 57 51 47 31 30 28 19 28 21 4 358 342 340 357 3 1 10 6 8 13
139 157 167 165 172 169 168 144 178 143 129 112 117 98 79 77 89 92 53 258 60 63 61 87 46 49 44 22 9 345 25 34 336 339 342 339 329 21 7 10 11 8 352
156 96 47 133 161 165 158 109 105 111 121 137 151 142 139 139 155 178 210 78 74 60 56 83 93 59 74 32 348 330 27 47 10 2 343 348 346 355 6 15 44 8 1
143 147 70 173 174 153 151 141 130 151 154 155 152 147 167 192 170 155 119 99 88 87 63 23 53 49 44 44 11 346 30 36 26 360 345 351 359 344 6 8 43 31 5
160 157 192 227 147 166 163 139 148 168 150 166 142 153 176 228 133 112 109 112 100 76 94 60 74 62 60 39 39 4 26 22 13 1 341 348 19 344 359 34 12 43 21
210 166 168 115 123 120 174 132 163 130 135 134 130 149 170 164 155 124 102 106 107 102 85 65 81 58 66 57 62 40 27 14 340 358 344 340 4 344 2 20 29 25 19
181 208 162 87 97 96 109 136 152 148 141 141 139 155 174 125 133 117 120 108 102 108 101 80 64 53 39 52 45 53 38 13 328 358 332 320 25 341 7 1 48 17 30
247 89 71 68 36 117 127 130 128 138 141 152 155 155 111 126 150 177 108 114 120 104 97 113 116 93 71 64 54 41 27 355 344 327 329 320 6 355 9 24 26 31 30
61 77 87 99 108 94 66 101 116 81 115 122 118 129 140 158 181 131 126 135 138 137 116 96 94 100 97 80 60 30 15 4 350 332 323 306 39 33 346 16 39 37 51